Retour au catalogue

FENGYUN 1C DEB

ActifSSO
NORAD 30140·DEBRIS·🇨🇳 China

Lancé May 10, 1999 depuis Taiyuan Satellite Launch Center

Loading…

Prochains Passages (prochaines 24 heures)

TLE

FraisSource: Space-Track

Époque: Sep 14, 2026, 11:11 UTC

1 30140U 99025SV  26257.46604264  .00001485  00000-0  68479-3 0  9992
2 30140  98.8075 324.9705 0040179 236.9800 191.0786 14.22141408 10501

Suivez FENGYUN 1C DEB en temps réel avec AllMySat

Download on the App Store